Location: Maccacari
(45.1333°N, 11.1333°E)
Time: 14:06:00
(UTC+00:00)

S-56A Canister/Altair - Pass Details

Date: 24 January 2021
Orbit: 631 x 2501 km, 38.9° (Epoch: 01 March)

Event Time Altitude Azimuth Distance (km) Brightness Sun altitude
Rises 07:10:07 0° 266° (W) 3,214 10.2 3.2°
Reaches altitude 10° 07:13:03 10° 247° (WSW) 2,479 9.8 3.7°
Maximum altitude 07:16:54 18° 205° (SSW) 2,241 10.1 4.2°
Drops below altitude 10° 07:21:38 10° 166° (SSE) 3,171 11.5 4.9°
Sets 07:26:07 0° 149° (SSE) 4,531 12.8 5.6°
